Waarnemingen

Advertentie
Mijn weer
Görlitz, Duitsland (10499): temperatuur & dauwpunt: 23.03.2017 01:00:00 - 29.03.2017 01:00:00 (CEST)Görlitz, Duitsland (10499): temperatuur 5cm & temperatuur -5cm: 23.03.2017 01:00:00 - 29.03.2017 01:00:00 (CEST)Görlitz, Duitsland (10499): temperatuur -20cm & temperatuur -100cm: 23.03.2017 01:00:00 - 29.03.2017 01:00:00 (CEST)Görlitz, Duitsland (10499): windsnelheid & windstoten: 23.03.2017 01:00:00 - 29.03.2017 01:00:00 (CEST)Görlitz, Duitsland (10499): windrichting: 23.03.2017 01:00:00 - 29.03.2017 01:00:00 (CEST)Görlitz, Duitsland (10499): luchtdruk: 23.03.2017 01:00:00 - 29.03.2017 01:00:00 (CEST)Görlitz, Duitsland (10499): zicht: 23.03.2017 01:00:00 - 29.03.2017 01:00:00 (CEST)Görlitz, Duitsland (10499): Zonneschijnduur: 23.03.2017 01:00:00 - 29.03.2017 01:00:00 (CEST)Görlitz, Duitsland (10499): neerslag: 23.03.2017 01:00:00 - 29.03.2017 01:00:00 (CEST)
Datum & Tijd tt [°C] td [°C] tt 5cm [°C] tt -5cm [°C] tt -20cm [°C] tt -100cm [°C] ff [km/u] ff [kn] fx [km/u] fx [kn] dd ppp [hPa] vv [km] sd [min] rr [mm]
29.03.2017 01:00:00 10,3 3,4 5,5 9,7 10,3 6,8 9 5 12 6 ZW 1020,9 50 0 0,0
29.03.2017 00:00:00 9,1 3,9 5,6 10,3 10,6 6,8 10 5 11 6 ZW 1021,1 55 0 0,0
28.03.2017 23:00:00 12,0 2,7 7,8 11,0 10,8 6,8 10 5 11 6 ZW 1020,6 55 0 0,0
28.03.2017 22:00:00 11,6 4,5 7,8 11,8 10,9 6,8 10 5 12 6 WZW 1020,6 55 0 0,0
28.03.2017 21:00:00 14,1 4,0 9,4 12,7 11,0 6,8 8 5 10 5 WZW 1020,3 60 0 0,0
28.03.2017 20:00:00 15,2 3,1 10,7 13,9 10,9 6,8 6 4 9 5 ZW 1019,8 70 21 0,0
28.03.2017 19:00:00 18,3 3,7 15,8 15,0 10,7 6,8 6 3 11 6 WNW 1019,4 70 60 0,0
28.03.2017 18:00:00 19,7 2,5 20,9 15,6 10,3 6,8 8 5 13 7 WNW 1019,1 70 60 0,0
28.03.2017 17:00:00 20,3 2,4 23,2 15,7 9,8 6,8 9 5 16 9 WNW 1019,5 60 60 0,0
28.03.2017 16:00:00 19,8 2,2 24,2 15,3 9,2 6,8 8 5 18 10 WNW 1020,1 50 60 0,0
28.03.2017 15:00:00 19,6 2,7 24,5 14,3 8,6 6,8 7 4 16 9 ZW 1020,7 35 60 0,0
28.03.2017 14:00:00 18,4 2,8 23,2 12,9 8,0 6,7 10 5 19 11 WZW 1021,4 30 60 0,0
28.03.2017 13:00:00 17,5 0,7 22,2 11,4 7,5 6,7 14 7 20 11 WZW 1021,9 28 60 0,0
28.03.2017 12:00:00 15,9 2,3 20,4 9,7 7,2 6,7 10 5 16 9 ZW 1022,6 27 60 0,0
28.03.2017 11:00:00 14,7 2,0 18,6 8,0 7,0 6,7 10 5 15 8 ZW 1022,9 27 60 0,0
28.03.2017 10:00:00 12,5 1,7 15,2 6,6 7,0 6,7 11 6 17 9 ZW 1023,1 35 60 0,0
28.03.2017 09:00:00 10,0 0,4 11,4 5,6 7,1 6,7 13 7 19 11 ZW 1023,0 55 60 0,0
28.03.2017 08:00:00 7,4 -0,9 6,9 5,3 7,3 6,6 12 7 18 10 ZW 1023,1 60 55 0,0
28.03.2017 07:00:00 5,9 -1,7 2,2 5,5 7,5 6,6 9 5 11 6 WZW 1022,9 40 0 0,0
28.03.2017 06:00:00 6,5 -1,2 1,8 5,8 7,7 6,6 8 4 11 6 ZZW 1022,8 35 0 0,0
28.03.2017 05:00:00 6,4 -1,3 2,7 6,1 7,9 6,6 9 5 15 8 WZW 1022,8 35 0 0,0
28.03.2017 04:00:00 6,3 -1,2 2,6 6,5 8,2 6,6 11 6 14 8 ZW 1023,1 35 0 0,0
28.03.2017 03:00:00 6,5 -1,0 2,9 6,9 8,4 6,6 10 5 12 7 WZW 1023,8 35 0 0,0
28.03.2017 02:00:00 7,4 -0,9 2,5 7,4 8,7 6,6 5 3 15 8 ZW 1023,9 35 0 0,0
28.03.2017 01:00:00 7,3 -0,3 3,7 7,9 8,9 6,6 9 5 13 7 ZW 1024,1 35 0 0,0
28.03.2017 00:00:00 6,8 1,0 3,8 8,6 9,2 6,7 12 6 14 8 ZW 1024,4 35 0 0,0
27.03.2017 23:00:00 7,3 2,0 3,4 9,2 9,4 6,7 3 2 10 5 ZZW 1024,6 35 0 0,0
27.03.2017 22:00:00 8,0 3,5 4,7 10,0 9,5 6,6 6 3 8 4 ZW 1024,7 40 0 0,0
27.03.2017 21:00:00 9,3 3,1 5,4 11,0 9,6 6,6 5 3 6 3 W 1024,4 45 0 0,0
27.03.2017 20:00:00 13,2 -1,3 6,6 12,1 9,5 6,6 1 1 3 2 ZO 1023,8 50 24 0,0
27.03.2017 19:00:00 15,1 1,9 12,7 13,2 9,2 6,6 0 0 5 3 N 1023,7 60 60 0,0
27.03.2017 18:00:00 15,8 0,2 18,4 13,7 8,9 6,7 3 2 8 5 NNO 1024,0 60 60 0,0
27.03.2017 17:00:00 15,8 1,0 20,4 13,7 8,4 6,7 4 2 9 5 N 1024,6 60 60 0,0
27.03.2017 16:00:00 15,7 1,8 20,9 13,3 7,8 6,7 6 4 12 6 NNO 1025,1 65 60 0,0
27.03.2017 15:00:00 14,4 -2,0 19,8 12,3 7,1 6,6 4 2 19 10 ZW 1025,6 65 60 0,0
27.03.2017 14:00:00 13,5 -2,5 19,2 11,0 6,6 6,6 6 3 16 8 W 1026,6 65 60 0,0
27.03.2017 13:00:00 12,3 -1,6 18,5 9,5 6,1 6,6 7 4 13 7 W 1027,2 65 60 0,0
27.03.2017 12:00:00 11,5 -1,7 16,4 7,8 5,7 6,6 6 3 12 6 W 1027,8 65 60 0,0
27.03.2017 11:00:00 10,5 -0,3 16,3 6,1 5,5 6,6 6 3 14 8 W 1027,9 65 60 0,0
27.03.2017 10:00:00 8,7 -0,3 12,3 4,5 5,5 6,6 4 2 9 5 Z 1028,0 72 60 0,0
27.03.2017 09:00:00 5,5 -0,7 7,9 3,5 5,6 6,6 4 2 7 4 Z 1028,1 75 60 0,0
27.03.2017 08:00:00 1,8 -1,6 2,1 3,3 5,8 6,6 7 4 9 5 Z 1028,3 75 52 0,0
27.03.2017 07:00:00 0,3 -2,8 -1,8 3,5 6,1 6,6 5 3 10 6 Z 1028,5 75 0 0,0
27.03.2017 06:00:00 0,3 -2,6 -1,8 3,7 6,3 6,6 9 5 10 6 Z 1028,4 35 0 0,0
27.03.2017 05:00:00 0,8 -2,5 -2,5 4,0 6,5 6,6 10 5 10 6 Z 1028,4 40 0 0,0
27.03.2017 04:00:00 0,2 -1,8 -1,9 4,4 6,8 6,6 7 4 10 5 Z 1028,8 40 0 0,0
27.03.2017 03:00:00 0,8 -1,7 -1,7 4,8 7,1 6,6 6 4 9 5 ZZO 1028,7 40 0 0,0
27.03.2017 02:00:00 1,2 -1,5 -1,8 5,3 7,3 6,6 6 3 8 4 Z 1028,6 45 0 0,0
27.03.2017 01:00:00 2,1 -1,9 -0,8 5,8 7,6 6,6 0 0 11 6 N 1028,6 40 0 0,0
27.03.2017 00:00:00 2,7 -0,1 -0,5 6,4 7,9 6,6 6 3 11 6 ZW 1028,2 40 0 0,0
26.03.2017 23:00:00 4,1 -0,5 0,7 7,1 8,1 6,6 6 4 10 5 WZW 1028,1 40 0 0,0
26.03.2017 22:00:00 4,8 -0,3 1,1 7,8 8,3 6,6 3 1 7 4 W 1027,8 40 0 0,0
26.03.2017 21:00:00 7,5 -3,0 2,9 8,8 8,4 6,6 6 3 8 5 ZO 1027,0 40 0 0,0
26.03.2017 20:00:00 7,4 -2,8 3,8 9,9 8,5 6,6 7 4 13 7 ZO 1026,8 55 7 0,0
26.03.2017 19:00:00 9,5 -1,5 7,8 11,0 8,2 6,6 6 4 12 7 OZO 1026,5 70 60 0,0
26.03.2017 18:00:00 10,9 -2,5 12,8 11,6 7,9 6,6 5 3 20 11 NO 1026,2 65 60 0,0
26.03.2017 17:00:00 11,0 -2,6 14,0 11,7 7,5 6,6 7 4 17 9 O 1026,4 65 60 0,0
26.03.2017 16:00:00 11,0 -1,8 15,8 11,3 7,0 6,6 7 4 22 12 NNO 1026,6 72 60 0,0
26.03.2017 15:00:00 10,3 -2,0 14,9 10,4 6,5 6,6 9 5 21 12 NO 1026,9 72 59 0,0
26.03.2017 14:00:00 9,9 -0,6 14,2 9,2 6,1 6,6 10 5 23 12 ONO 1027,0 72 60 0,0
26.03.2017 13:00:00 9,3 -3,2 13,0 8,1 5,7 6,6 16 9 28 15 O 1027,0 60 60 0,0
26.03.2017 12:00:00 7,9 -0,4 12,4 6,9 5,4 6,6 14 8 23 12 NO 1027,0 46 60 0,0
26.03.2017 11:00:00 7,1 0,7 11,2 5,6 5,3 6,6 8 5 15 8 ONO 1027,1 42 60 0,0
26.03.2017 10:00:00 6,1 1,5 9,4 4,3 5,2 6,6 5 3 9 5 ONO 1026,8 35 60 0,0
26.03.2017 09:00:00 4,1 1,2 6,4 3,3 5,4 6,6 4 2 7 4 NO 1026,6 35 60 0,0
26.03.2017 08:00:00 1,3 -0,6 1,2 3,2 5,5 6,5 1 1 8 4 NNO 1026,1 35 41 0,0
26.03.2017 07:00:00 -1,4 -2,0 -2,8 3,3 5,7 6,5 6 4 9 5 WZW 1026,2 27 0 0,0
26.03.2017 06:00:00 -0,4 -1,0 -2,3 3,6 5,9 6,5 6 3 6 4 WZW 1025,9 15 0 0,0
26.03.2017 05:00:00 0,9 0,0 -2,3 4,0 6,1 6,5 2 1 7 4 WNW 1025,8 17 0 0,0
26.03.2017 04:00:00 1,0 -0,4 -1,7 4,4 6,3 6,5 5 3 6 4 WNW 1025,6 17 0 0,0
26.03.2017 03:00:00 2,0 0,1 -1,2 4,8 6,5 6,5 1 0 11 6 NNO 1025,7 23 0 0,0
26.03.2017 02:00:00 3,6 0,4 2,3 5,1 6,7 6,5 9 5 12 7 ONO 1025,6 25 0 0,0
26.03.2017 01:00:00 3,7 0,2 2,3 5,5 6,9 6,5 8 4 14 7 NO 1025,3 20 0 0,0
26.03.2017 00:00:00 4,3 0,2 3,3 5,8 7,0 6,5 13 7 26 14 NO 1025,0 30 0 0,0
25.03.2017 23:00:00 5,7 0,2 4,6 6,2 7,2 6,5 17 9 24 13 NNO 1024,7 35 0 0,0
25.03.2017 22:00:00 6,6 -1,8 4,4 6,6 7,4 6,5 9 5 16 8 NW 1024,6 35 0 0,0
25.03.2017 21:00:00 7,2 -1,7 4,9 7,2 7,5 6,6 10 5 17 9 NNW 1024,4 40 0 0,0
25.03.2017 20:00:00 7,8 -2,0 5,7 8,0 7,5 6,6 10 5 22 12 NW 1023,8 50 0 0,0
25.03.2017 19:00:00 9,5 -1,3 8,2 8,8 7,4 6,5 12 7 27 15 WNW 1023,8 50 40 0,0
25.03.2017 18:00:00 10,7 -0,4 11,2 9,3 7,2 6,5 15 8 30 16 WNW 1024,3 50 60 0,0
25.03.2017 17:00:00 11,4 -1,1 14,2 9,2 7,0 6,5 16 9 29 16 NW 1025,1 50 60 0,0
25.03.2017 16:00:00 11,0 -2,1 13,2 9,0 6,7 6,5 14 8 33 18 NW 1026,1 50 42 0,0
25.03.2017 15:00:00 11,1 -2,9 14,4 8,9 6,4 6,5 17 9 31 17 WNW 1027,0 45 52 0,0
25.03.2017 14:00:00 10,2 -1,3 13,3 8,2 6,1 6,5 15 8 32 18 W 1027,8 40 59 0,0
25.03.2017 13:00:00 9,3 -1,1 11,4 7,5 5,8 6,5 11 6 17 9 W 1028,9 45 18 0,0
25.03.2017 12:00:00 8,8 -1,3 10,7 6,5 5,6 6,5 8 5 13 7 W 1029,5 40 49 0,0
25.03.2017 11:00:00 7,3 1,3 9,3 5,4 5,5 6,5 4 2 9 5 W 1030,2 40 17 0,0
25.03.2017 10:00:00 5,8 1,8 7,2 4,4 5,5 6,5 6 4 11 6 WZW 1030,7 35 14 0,0
25.03.2017 09:00:00 3,7 1,3 3,6 3,6 5,6 6,5 6 3 8 4 ZW 1031,1 35 4 0,0
25.03.2017 08:00:00 0,6 -0,1 0,4 3,4 5,8 6,5 4 2 7 4 ZZO 1031,3 30 5 0,0
25.03.2017 07:00:00 -0,1 -0,4 -1,6 3,6 6,0 6,5 4 2 6 4 WZW 1031,4 18 0 0,0
25.03.2017 06:00:00 -0,1 -0,5 -2,1 3,8 6,2 6,5 5 3 6 4 Z 1031,5 11 0 0,0
25.03.2017 05:00:00 0,4 -0,2 -1,7 4,1 6,4 6,5 5 3 7 4 ZZW 1031,6 14 0 0,0
25.03.2017 04:00:00 1,5 0,5 -1,2 4,4 6,6 6,5 6 3 9 5 ZZW 1032,0 13 0 0,0
25.03.2017 03:00:00 1,4 0,9 -1,4 4,8 6,9 6,5 3 2 8 4 ZW 1032,6 13 0 0,0
25.03.2017 02:00:00 2,3 0,9 0,4 5,2 7,1 6,5 8 5 13 7 NNO 1032,7 17 0 0,0
25.03.2017 01:00:00 2,3 1,1 -0,3 5,6 7,4 6,5 6 3 8 4 W 1032,4 17 0 0,0
25.03.2017 00:00:00 3,7 1,4 0,9 6,1 7,6 6,5 8 4 10 5 WZW 1032,2 15 0 0,0
24.03.2017 23:00:00 3,9 1,5 0,9 6,7 7,8 6,5 6 3 8 4 WZW 1032,1 17 0 0,0
24.03.2017 22:00:00 5,6 0,7 1,3 7,4 8,0 6,5 4 2 10 5 ZO 1031,9 20 0 0,0
24.03.2017 21:00:00 7,7 1,2 5,1 8,1 8,1 6,5 7 4 11 6 ONO 1031,6 27 0 0,0
24.03.2017 20:00:00 7,9 2,7 5,7 8,9 8,1 6,5 9 5 13 7 NO 1031,1 40 14 0,0
24.03.2017 19:00:00 9,5 1,3 8,4 9,7 8,0 6,5 8 4 18 10 ONO 1030,3 45 60 0,0
24.03.2017 18:00:00 9,8 1,5 10,1 10,2 7,8 6,5 10 5 32 18 ONO 1030,2 50 41 0,0
24.03.2017 17:00:00 10,7 1,6 12,5 10,2 7,6 6,5 9 5 23 12 NO 1030,0 50 42 0,0
24.03.2017 16:00:00 10,0 1,8 10,7 9,9 7,4 6,5 16 9 30 16 NO 1029,8 45 40 0,0
24.03.2017 15:00:00 10,2 1,4 12,8 9,3 7,1 6,5 13 7 27 15 ONO 1030,1 40 24 0,0
24.03.2017 14:00:00 9,5 1,6 11,4 8,9 6,9 6,5 13 7 24 13 ONO 1030,5 40 9 0,0
24.03.2017 13:00:00 8,5 1,6 9,6 8,7 6,6 6,5 14 8 27 14 ONO 1030,3 35 39 0,0
24.03.2017 12:00:00 8,6 1,2 11,2 7,9 6,4 6,5 17 9 27 15 ONO 1029,6 35 54 0,0
24.03.2017 11:00:00 7,9 1,8 10,1 7,0 6,3 6,5 19 10 26 14 NNO 1029,7 25 58 0,0
24.03.2017 10:00:00 6,9 2,8 8,3 6,1 6,3 6,5 12 6 17 9 NNO 1029,5 18 47 0,0
24.03.2017 09:00:00 5,5 2,3 6,8 5,6 6,3 6,5 11 6 15 8 N 1028,9 12 26 0,0
24.03.2017 08:00:00 4,3 3,2 4,1 5,7 6,4 6,5 8 4 13 7 N 1027,8 10 1 0,0
24.03.2017 07:00:00 4,6 3,4 4,4 5,8 6,4 6,5 8 4 15 8 N 1026,9 9 0 0,0
24.03.2017 06:00:00 4,9 3,6 4,8 6,0 6,5 6,5 11 6 17 9 NNW 1025,9 7 0 0,0
24.03.2017 05:00:00 5,2 4,0 5,1 6,1 6,5 6,5 8 4 12 7 NW 1025,1 5 0 0,0
24.03.2017 04:00:00 5,5 4,6 5,3 6,1 6,6 6,5 5 3 10 5 NW 1024,3 4,0 0 0,0
24.03.2017 03:00:00 5,6 4,6 5,5 6,2 6,6 6,5 6 4 11 6 NNW 1024,2 5 0 0,0
24.03.2017 02:00:00 5,7 4,8 5,6 6,3 6,6 6,5 6 3 10 5 NW 1023,5 4,5 0 0,0
24.03.2017 01:00:00 5,7 4,7 5,6 6,3 6,7 6,5 4 2 8 4 NW 1023,0 4,3 0 0,0
24.03.2017 00:00:00 5,7 4,7 5,6 6,4 6,7 6,5 4 2 9 5 WNW 1022,6 3,8 0 0,0
23.03.2017 23:00:00 5,7 4,8 5,7 6,5 6,8 6,5 7 4 12 6 NNW 1022,0 3,5 0 0,0
23.03.2017 22:00:00 5,8 4,9 5,8 6,6 6,8 6,5 6 4 13 7 NNW 1021,4 3,0 0 0,0
23.03.2017 21:00:00 5,8 4,9 5,9 6,8 6,8 6,5 8 4 11 6 NNW 1020,7 2,8 0 0,0
23.03.2017 20:00:00 6,1 5,0 6,0 6,9 6,9 6,5 6 3 10 6 NNO 1020,0 3,2 0 0,0
23.03.2017 19:00:00 6,0 4,8 6,1 7,1 6,9 6,5 6 4 16 8 ONO 1019,5 4,0 0 0,0
23.03.2017 18:00:00 6,0 4,9 6,2 7,3 6,8 6,5 9 5 19 11 ONO 1019,2 4,0 0 0,0
23.03.2017 17:00:00 6,2 4,9 6,5 7,5 6,7 6,4 16 8 20 11 NO 1018,7 6 0 0,0
23.03.2017 16:00:00 6,6 5,1 7,0 7,6 6,6 6,4 16 9 21 11 NO 1018,7 8 0 0,0
23.03.2017 15:00:00 7,0 4,8 7,8 7,6 6,5 6,4 13 7 19 11 ONO 1018,4 10 0 0,0
23.03.2017 14:00:00 6,8 4,4 7,7 7,5 6,3 6,4 13 7 23 12 NO 1018,7 11 0 0,0
23.03.2017 13:00:00 7,4 4,3 9,0 7,0 6,1 6,4 13 7 21 11 ONO 1018,3 11 0 0,0
23.03.2017 12:00:00 6,4 3,8 8,1 6,1 6,1 6,4 11 6 21 12 ONO 1018,6 9 0 0,0
23.03.2017 11:00:00 5,3 3,5 6,3 5,6 6,0 6,4 14 8 23 12 O 1018,9 6 0 0,0
23.03.2017 10:00:00 4,5 3,3 4,7 5,3 6,1 6,4 14 8 26 14 O 1018,7 5 0 0,0
23.03.2017 09:00:00 4,2 2,9 4,4 5,2 6,1 6,4 18 10 29 15 O 1018,4 6 0 0,0
23.03.2017 08:00:00 4,3 2,7 4,3 5,1 6,2 6,4 13 7 24 13 O 1018,4 8 0 0,0
23.03.2017 07:00:00 4,4 2,7 4,3 5,1 6,3 6,4 14 8 32 18 O 1017,9 8 0 0,0
23.03.2017 06:00:00 4,6 2,5 4,4 5,1 6,3 6,4 17 9 29 16 O 1017,8 9 0 0,0
23.03.2017 05:00:00 4,6 2,6 4,4 5,1 6,5 6,4 13 7 26 14 ONO 1018,5 9 0 0,0
23.03.2017 04:00:00 4,3 2,7 3,5 5,2 6,6 6,4 13 7 23 12 ONO 1018,8 10 0 0,0
23.03.2017 03:00:00 4,3 2,2 3,4 5,5 6,7 6,4 11 6 25 14 ONO 1019,1 18 0 0,0
23.03.2017 02:00:00 4,9 2,0 4,5 5,6 6,9 6,4 18 10 26 14 O 1018,6 22 0 0,0
23.03.2017 01:00:00 - - - - - - - - - - - - - - -

tt = temperatuur
td = dauwpunt
tt 5cm = temperatuur 5cm
tt -5cm = temperatuur -5cm
tt -20cm = temperatuur -20cm
tt -100cm = temperatuur -100cm
ff = windsnelheid
fx = windstoten
dd = windrichting
ppp = luchtdruk
vv = zicht
sd = Zonneschijnduur
rr = neerslag

Weerstations in de omgeving